Location: Elbart
(49.6135°N, 11.9134°E)
Time: 09:42:50
(UTC+00:00)

Cosmos 676 Rocket - Pass Details

Date: 09 April 2020
Orbit: 755 x 783 km, 74.0° (Epoch: 25 May)

Event Time Altitude Azimuth Distance (km) Brightness Sun altitude
Rises 19:07:01 0° 187° (S) 3,242 7.0 -11.5°
Reaches altitude 10° 19:09:26 10° 183° (S) 2,315 6.3 -11.8°
Maximum altitude 19:14:33 55° 107° (ESE) 927 4.1 -12.5°
Drops below altitude 10° 19:19:40 10° 31° (NNE) 2,313 6.5 -13.3°
Sets 19:22:04 0° 27° (NNE) 3,239 7.3 -13.6°
